Username
Password
 
Info Terbaru :
  

Jackpot hanya dapat di beli di awal sebelum periode tersebut berjalan dan jika berhasil maka anda dapat melihat di sisi kiri bawah atau kiri atas akan terdapat notifikasi bahwa jackpot anda berhasil di beli.

Jika anda membeli jackpot di tengah permainan maka pembelian jackpot akan berlaku untuk periode selanjutnya.

Jackpot Winner Domino

Ikutilah global jackpot yang tersedia di system kami, dengan system jackpot terbaru dan pertama di indonesia, anda dapat membeli jackpot dengan harga 100 rupiah saja dan menangkan hadiahnya hingga puluhan juta rupiah.

Jackpot bukanlah suatu keharusan untuk dibeli, namun kami memberikan suatu fitur tambahan untuk member tercinta dari www.dewapoker.company.

Terdapat tiga pilihan harga jackpot yang bisa anda beli yaitu :100,500 dan 1000 rupiah.

Hadiah dari Multi jackpot system www.dewapoker.company

  1. Murni Kecil x 50 harga jackpot yang anda beli.
      (contoH:anda membeli 1000 maka:1000 X 50 = 50.000)
  2. Murni Besar x 50 harga jackpot yang anda beli
      (contoH:anda membeli 1000 maka:1000 X 50 = 50.000)
  3. BALAK x 100 harga jackpot yang anda beli
      (contoH:anda membeli 1000 maka:1000 X 100 = 100.000)
  4. ENAM DEWA x 6666 harga jackpot yang anda beli
      (contoH:anda membeli 1000 maka:1000 X 6666 = 6.666.000)

Demikian adalah penjelasan dari Multi Jackpot www.dewapoker.company terima kasih dan selamat bermain salam hoki dari kami


Note: Untuk mendapatkan jackpot di satu periode, pemain harus menyelesaikan permainan di periode tersebut, minimal 2 pemain. Jika semua pemain 'fold' jackpot tidak akan diturunkan.


Jackpot Winner

TOP ENAM DEWA
No. Tanggal Nama Price Win
1 18/02 23:42 SPGYAMAHA murni enam 666,600
2 18/02 23:15 SOHAHAU3 murni enam 6,666,000
3 18/02 22:25 JGNSUKEPO murni enam 6,666,000
4 18/02 20:52 Y1MIPR5DDS murni enam 666,600
5 18/02 20:30 ARBA_I murni enam 666,600
TOP BALAK
No. Tanggal Nama Price Win
1 19/02 00:09 AD95 balak 100,000
2 19/02 00:09 SALJU30 balak 100,000
3 19/02 00:08 PASTIABAH balak 50,000
4 19/02 00:08 AHMADKADEN balak 50,000
5 19/02 00:07 ECEEKS balak 10,000
LATEST JACKPOT
No. Tanggal Nama Price Win
1 19/02 00:13 TRISTEGUH8 murni besar 50,000
2 19/02 00:13 MEMO66 murni besar 25,000
3 19/02 00:12 REZONG11 murni besar 5,000
4 19/02 00:11 ZOLO123 murni besar 50,000
5 19/02 00:10 SULTANCAD murni kecil 5,000
6 19/02 00:10 SELENA97 murni besar 50,000
7 19/02 00:10 CYCLOUP murni besar 25,000
8 19/02 00:10 SUNIA05 murni kecil 50,000
9 19/02 00:10 NCANCA murni besar 25,000
10 19/02 00:09 AD95 balak 100,000
11 19/02 00:09 CUCUKKK9 murni besar 5,000
12 19/02 00:09 B84ROCK348 murni besar 5,000
13 19/02 00:09 SALJU30 balak 100,000
14 19/02 00:09 MPAUTO030 murni besar 50,000
15 19/02 00:09 VICKY123 murni kecil 50,000
16 19/02 00:08 WIN_TRS09 murni besar 50,000
17 19/02 00:08 PASTIABAH balak 50,000
18 19/02 00:08 ZHARCK45 murni besar 50,000
19 19/02 00:08 AHMADKADEN balak 50,000
20 19/02 00:08 ROTE991 murni besar 50,000
21 19/02 00:07 ECEEKS balak 10,000
22 19/02 00:07 MASADY90 murni besar 50,000
23 19/02 00:07 ACENGP balak 50,000
24 19/02 00:07 PAPAYU04 murni besar 50,000
25 19/02 00:07 MEMO66 murni besar 25,000
26 19/02 00:07 WANUEK balak 100,000
27 19/02 00:07 JUSU06 murni besar 50,000
28 19/02 00:07 TDAS89 murni kecil 25,000
29 19/02 00:07 CEKKIT0 murni besar 25,000
30 19/02 00:06 ARYI86 murni besar 5,000
31 19/02 00:06 PANGOI123 murni kecil 25,000
32 19/02 00:05 MR_ONII10 murni besar 5,000
33 19/02 00:05 NRDN08 murni besar 5,000
34 19/02 00:05 POKEMON212 lucky99 10,000
35 19/02 00:05 ONEHEART08 balak 10,000
36 19/02 00:05 BIETING murni kecil 50,000
37 19/02 00:04 ANASYAH8 lucky99 2,500
38 19/02 00:04 OIMBUBUR murni kecil 25,000
39 19/02 00:04 MAT164 murni besar 50,000
40 19/02 00:03 MALEHOY95 murni besar 25,000
41 19/02 00:02 ONYIS murni kecil 5,000
42 19/02 00:02 C3E3687C murni besar 50,000
43 19/02 00:02 MUSTIADI77 murni kecil 50,000
44 19/02 00:02 TEMPALO murni kecil 50,000
45 19/02 00:02 BAGONK86 balak 50,000
46 19/02 00:01 SUTAR31 murni kecil 50,000
47 19/02 00:01 BETA230291 murni besar 50,000
48 19/02 00:01 WIS009 murni kecil 25,000
49 19/02 00:00 LEOJAV balak 100,000
50 19/02 00:00 WIS009 murni besar 25,000


Situs Poker Online
Dewapoker.com Hadir untuk semua pecinta permainan kartu poker online yang khususnya berada di asia. Dengan system teknology baru dan server kecepatan tinggi akan membuat permainan poker anda lebih seru dan menarik bersama teman2x anda maupun saingan anda. Cukup lakukan login dan langsung bermain tanpa download. Dewapoker.com dengan encrypsi server yang tinggi akan menjamin keamanan data para member.
Terms & Conditions Link Alternatif Cara Bermain Video Dewapoker
© Copyright 2019 Dewa Poker. All right reserved.